Weather History for KARG - March, 2014

Change the Weather History Date:

Monday, March 31, 2014

  Actual Average Record
Temperature  
Mean Temperature 56 °F -  
Max Temperature 69 °F 63 °F 82 °F (2012)
Min Temperature 44 °F 45 °F 33 °F (2003)
Degree Days  
Heating Degree Days 8    
Growing Degree Days 6 (Base 50)    
Moisture  
Dew Point 44 °F    
Average Humidity 67    
Maximum Humidity 81    
Minimum Humidity 43    
Precipitation  
Precipitation 0.00 in - - ()
Sea Level Pressure  
Sea Level Pressure 30.01 in    
Wind  
Wind Speed 10 mph (South)    
Max Wind Speed 26 mph    
Max Gust Speed 31 mph    
Visibility 10 miles    
Events      
Averages and records for this station are not official NWS values.
T = Trace of Precipitation, MM = Missing Value Source: NWS Daily Summary

Daily Weather History Graph

Daily Weather History Graph

Search for Another Location

Airport or City:

Trip Planner

Search our weather history database for the weather conditions in past years. The results will help you decide how hot, cold, wet, or windy it might be!

Date:

Astronomy

Mar. 31, 2014 Rise Set
Actual Time 6:51 AM CDT 7:24 PM CDT
Civil Twilight 6:25 AM CDT 7:50 PM CDT
Nautical Twilight 5:55 AM CDT 8:21 PM CDT
Astronomical Twilight 5:24 AM CDT 8:52 PM CDT
Moon 7:16 AM CDT (3/31) 8:40 PM CDT (3/31)
Length of Visible Light 13h 25m
Length of Day
12h 33m
New Moon, 1% of the Moon is Illuminated
Mar 31
New Moon
Apr 7
First Quarter
Apr 15
Full
Apr 22
Last Quarter
Apr 29
New

Hourly Weather History & Observations

Time (CDT) Temp. Windchill Dew Point Humidity Pressure Visibility Wind Dir Wind Speed Gust Speed Precip Events Conditions
12:15 AM 48.2 °F - 41.0 °F 76% 30.09 in 8.0 mi SSE 8.1 mph - N/A   Clear
12:35 AM 48.2 °F - 41.0 °F 76% 30.09 in 10.0 mi SSE 8.1 mph - N/A   Clear
12:55 AM 46.4 °F 42.4 °F 41.0 °F 81% 30.08 in 10.0 mi SSE 8.1 mph - N/A   Clear
1:15 AM 46.4 °F 43.5 °F 39.2 °F 76% 30.09 in 10.0 mi SSE 5.8 mph - N/A   Clear
1:35 AM 48.2 °F - 39.2 °F 71% 30.08 in 10.0 mi SSE 5.8 mph - N/A   Clear
1:55 AM 46.4 °F 45.2 °F 39.2 °F 76% 30.08 in 10.0 mi SSE 3.5 mph - N/A   Clear
2:15 AM 46.4 °F 45.2 °F 39.2 °F 76% 30.08 in 10.0 mi SE 3.5 mph - N/A   Clear
2:35 AM 48.2 °F - 39.2 °F 71% 30.07 in 10.0 mi SSE 4.6 mph - N/A   Clear
2:55 AM 48.2 °F - 39.2 °F 71% 30.07 in 10.0 mi SSE 4.6 mph - N/A   Clear
3:15 AM 46.4 °F 44.3 °F 39.2 °F 76% 30.06 in 10.0 mi SSE 4.6 mph - N/A   Clear
3:35 AM 46.4 °F 43.5 °F 39.2 °F 76% 30.05 in 10.0 mi SSE 5.8 mph - N/A   Clear
3:55 AM 46.4 °F 44.3 °F 37.4 °F 71% 30.05 in 10.0 mi SSE 4.6 mph - N/A   Clear
4:15 AM 46.4 °F 44.3 °F 37.4 °F 71% 30.05 in 10.0 mi SE 4.6 mph - N/A   Clear
4:35 AM 44.6 °F 41.4 °F 37.4 °F 76% 30.04 in 10.0 mi SE 5.8 mph - N/A   Clear
4:55 AM 44.6 °F 40.7 °F 37.4 °F 76% 30.03 in 10.0 mi SE 6.9 mph - N/A   Clear
5:15 AM 44.6 °F 40.2 °F 39.2 °F 81% 30.03 in 10.0 mi SSE 8.1 mph - N/A   Clear
5:35 AM 46.4 °F 42.9 °F 39.2 °F 76% 30.04 in 10.0 mi SSE 6.9 mph - N/A   Clear
5:55 AM 44.6 °F 40.7 °F 39.2 °F 81% 30.05 in 10.0 mi SE 6.9 mph - N/A   Clear
6:15 AM 44.6 °F 43.1 °F 37.4 °F 76% 30.05 in 10.0 mi SE 3.5 mph - N/A   Clear
6:35 AM 44.6 °F 42.2 °F 37.4 °F 76% 30.05 in 10.0 mi SE 4.6 mph - N/A   Clear
6:55 AM 44.6 °F 42.2 °F 37.4 °F 76% 30.05 in 10.0 mi SE 4.6 mph - N/A   Clear
7:15 AM 46.4 °F 42.4 °F 39.2 °F 76% 30.05 in 10.0 mi SE 8.1 mph - N/A   Clear
7:35 AM 46.4 °F 42.4 °F 39.2 °F 76% 30.05 in 10.0 mi SE 8.1 mph - N/A   Clear
7:55 AM 48.2 °F - 41.0 °F 76% 30.06 in 10.0 mi SSE 8.1 mph - N/A   Clear
8:15 AM 51.8 °F - 44.6 °F 76% 30.06 in 10.0 mi South 10.4 mph - N/A   Clear
8:35 AM 51.8 °F - 44.6 °F 76% 30.07 in 10.0 mi South 11.5 mph - N/A   Clear
8:55 AM 53.6 °F - 44.6 °F 72% 30.07 in 10.0 mi South 12.7 mph - N/A   Clear
9:15 AM 55.4 °F - 46.4 °F 72% 30.06 in 10.0 mi South 10.4 mph - N/A   Clear
9:35 AM 55.4 °F - 44.6 °F 67% 30.07 in 10.0 mi South 11.5 mph - N/A   Clear
9:55 AM 55.4 °F - 44.6 °F 67% 30.07 in 10.0 mi South 13.8 mph 19.6 mph N/A   Clear
10:15 AM 57.2 °F - 46.4 °F 67% 30.08 in 10.0 mi South 11.5 mph - N/A   Clear
10:35 AM 60.8 °F - 48.2 °F 63% 30.08 in 10.0 mi South 15.0 mph 19.6 mph N/A   Clear
10:55 AM 62.6 °F - 46.4 °F 55% 30.08 in 10.0 mi South 20.7 mph - N/A   Clear
11:15 AM 62.6 °F - 46.4 °F 55% 30.07 in 10.0 mi South 18.4 mph 24.2 mph N/A   Clear
11:35 AM 62.6 °F - 46.4 °F 55% 30.07 in 10.0 mi South 19.6 mph 23.0 mph N/A   Partly Cloudy
11:55 AM 62.6 °F - 46.4 °F 55% 30.06 in 10.0 mi South 20.7 mph - N/A   Mostly Cloudy
12:15 PM 62.6 °F - 46.4 °F 55% 30.05 in 10.0 mi South 16.1 mph 23.0 mph N/A   Mostly Cloudy
12:35 PM 64.4 °F - 46.4 °F 52% 30.03 in 10.0 mi South 19.6 mph - N/A   Scattered Clouds
12:55 PM 64.4 °F - 46.4 °F 52% 30.02 in 10.0 mi South 18.4 mph 25.3 mph N/A   Partly Cloudy
1:15 PM 64.4 °F - 46.4 °F 52% 30.01 in 10.0 mi South 18.4 mph 25.3 mph N/A   Mostly Cloudy
1:35 PM 64.4 °F - 44.6 °F 49% 29.99 in 10.0 mi South 20.7 mph 28.8 mph N/A   Scattered Clouds
1:55 PM 64.4 °F - 46.4 °F 52% 29.98 in 10.0 mi South 17.3 mph 24.2 mph N/A   Scattered Clouds
2:15 PM 64.4 °F - 46.4 °F 52% 29.97 in 10.0 mi South 20.7 mph 27.6 mph N/A   Scattered Clouds
2:35 PM 66.2 °F - 48.2 °F 52% 29.97 in 10.0 mi South 21.9 mph - N/A   Scattered Clouds
2:55 PM 68.0 °F - 48.2 °F 49% 29.94 in 10.0 mi South 24.2 mph 28.8 mph N/A   Scattered Clouds
3:15 PM 66.2 °F - 46.4 °F 49% 29.94 in 10.0 mi South 26.5 mph 31.1 mph N/A   Scattered Clouds
3:35 PM 66.2 °F - 46.4 °F 49% 29.95 in 10.0 mi South 18.4 mph - N/A   Mostly Cloudy
3:55 PM 69.8 °F - 46.4 °F 43% 29.95 in 10.0 mi South 16.1 mph - N/A   Partly Cloudy
4:15 PM 68.0 °F - 46.4 °F 46% 29.95 in 10.0 mi South 20.7 mph 26.5 mph N/A   Clear
4:35 PM 66.2 °F - 44.6 °F 46% 29.96 in 10.0 mi SSW 19.6 mph - N/A   Clear
4:55 PM 66.2 °F - 46.4 °F 49% 29.98 in 10.0 mi SSW 17.3 mph - N/A   Scattered Clouds
5:15 PM 64.4 °F - 46.4 °F 52% 29.97 in 10.0 mi South 12.7 mph - N/A   Scattered Clouds
5:35 PM 62.6 °F - 48.2 °F 59% 29.95 in 10.0 mi SSE 10.4 mph - N/A   Mostly Cloudy
5:55 PM 60.8 °F - 50.0 °F 68% 29.91 in 10.0 mi South 13.8 mph - N/A   Mostly Cloudy
6:15 PM 60.8 °F - 50.0 °F 68% 29.88 in 10.0 mi SSE 21.9 mph 26.5 mph N/A   Scattered Clouds
6:35 PM 60.8 °F - 51.8 °F 72% 29.90 in 10.0 mi SSE 11.5 mph - N/A   Scattered Clouds
6:55 PM 60.8 °F - 50.0 °F 68% 29.88 in 10.0 mi SE 8.1 mph - N/A   Clear
7:15 PM 60.8 °F - 50.0 °F 68% 29.90 in 10.0 mi SSE 5.8 mph - N/A   Clear
7:35 PM 60.8 °F - 50.0 °F 68% 29.91 in 10.0 mi South 9.2 mph - N/A   Clear
7:55 PM 57.2 °F - 48.2 °F 72% 29.93 in 10.0 mi SSW 9.2 mph - N/A   Clear
8:15 PM 59.0 °F - 48.2 °F 67% 29.94 in 10.0 mi South 9.2 mph - N/A   Clear
8:35 PM 57.2 °F - 48.2 °F 72% 29.96 in 10.0 mi SSW 5.8 mph - N/A   Clear
8:55 PM 57.2 °F - 48.2 °F 72% 29.98 in 10.0 mi SW 6.9 mph - N/A   Mostly Cloudy
9:15 PM 59.0 °F - 48.2 °F 67% 29.98 in 10.0 mi SSW 6.9 mph - N/A   Overcast
9:35 PM 57.2 °F - 48.2 °F 72% 29.97 in 10.0 mi SSW 5.8 mph - N/A   Mostly Cloudy
9:55 PM 59.0 °F - 48.2 °F 67% 29.97 in 10.0 mi South 6.9 mph - N/A   Mostly Cloudy
10:15 PM 57.2 °F - 48.2 °F 72% 29.98 in 10.0 mi South 6.9 mph - N/A   Overcast
10:35 PM 55.4 °F - 48.2 °F 77% 29.97 in 10.0 mi SSW 8.1 mph - N/A   Mostly Cloudy
10:55 PM 57.2 °F - 48.2 °F 72% 29.98 in 10.0 mi SSW 6.9 mph - N/A   Overcast
11:15 PM 55.4 °F - 48.2 °F 77% 29.97 in 10.0 mi South 8.1 mph - N/A   Scattered Clouds
11:35 PM 55.4 °F - 46.4 °F 72% 29.98 in 10.0 mi South 4.6 mph - N/A   Clear
11:55 PM 53.6 °F - 46.4 °F 77% 29.98 in 10.0 mi South 9.2 mph - N/A   Clear